FW9471 Weather Reports


time (UTC)temp
F
wind
direction
speed
knots
gust
knots
rain 1hr
in
rain 24hr
in
rain mn
in
humidity
%
barometer
mb
20260906083047 73 34 1.7 3.5 0.00 0.00 0.00 97 1012.4
20260906081547 72 322 1.7 4.3 0.00 0.00 0.00 98 1012.1
20260906080049 72 0 0.0 0.9 0.00 0.00 0.00 98 1012.0
20260906074551 72 263 0.0 3.5 0.00 0.00 0.00 98 1011.9
20260906073048 73 321 1.7 3.5 0.00 0.00 0.00 98 1011.9
20260906071558 72 0 0.0 1.7 0.00 0.00 0.00 97 1012.1
20260906070050 72 30 0.0 2.6 0.00 0.00 0.00 97 1012.2
20260906064547 72 210 0.9 2.6 0.00 0.00 0.00 97 1012.0
20260906063053 72 0 0.0 1.7 0.00 0.00 0.00 96 1012.1
20260906061542 73 211 0.0 2.6 0.00 0.00 0.00 96 1012.6
20260906060051 73 257 0.0 2.6 0.00 0.00 0.00 96 1012.9
20260906054549 73 280 0.0 2.6 0.00 0.00 0.00 95 1013.1
20260906053053 74 323 1.7 3.5 0.00 0.00 0.00 95 1013.1
20260906051551 74 0 0.0 2.6 0.00 0.00 0.00 95 1013.2
20260906050048 74 306 0.0 3.5 0.00 0.00 0.00 95 1013.4
20260906044543 74 345 1.7 3.5 0.00 0.00 0.00 94 1013.4
20260906043049 74 0 0.0 0.9 0.00 0.00 0.00 94 1013.3
20260906041548 74 69 0.0 2.6 0.00 0.00 0.00 94 1013.3
20260906040047 74 15 1.7 4.3 0.00 0.00 0.00 93 1013.4
20260906034553 75 284 0.9 2.6 0.00 0.00 0.00 93 1013.3
20260906033048 75 0 0.0 3.5 0.00 0.00 0.00 92 1013.4
20260906031554 75 313 0.9 2.6 0.00 0.00 0.00 91 1013.5
20260906030054 75 277 0.9 2.6 0.00 0.00 0.00 90 1013.5
20260906024601 75 269 0.0 1.7 0.00 0.00 0.00 88 1013.4
20260906023053 75 184 0.9 3.5 0.00 0.00 0.00 88 1013.4
20260906021553 75 216 1.7 3.5 0.00 0.00 0.00 88 1013.3
20260906020051 76 23 0.9 2.6 0.00 0.00 0.00 86 1012.9
20260906014600 77 0 0.0 1.7 0.00 0.00 0.00 85 1013.0
20260906013055 77 0 0.0 2.6 0.00 0.00 0.00 84 1013.3
20260906011553 77 211 0.0 3.5 0.00 0.00 0.00 84 1013.3
20260906010051 77 0 0.0 0.0 0.00 0.00 0.00 85 1013.1
20260906004548 78 0 0.0 0.0 0.00 0.00 0.00 84 1012.8
20260906003105 78 190 0.0 2.6 0.00 0.00 0.00 83 1012.5
20260906001545 80 0 0.0 2.6 0.00 0.00 0.00 80 1011.9
20260906000055 80 63 0.9 4.3 0.00 0.00 0.00 79 1012.0
20260905234547 81 333 1.7 6.1 0.00 0.00 0.00 78 1012.3
20260905233046 82 317 1.7 5.2 0.00 0.00 0.00 73 1012.1
20260905231546 82 98 1.7 4.3 0.00 0.00 0.00 73 1011.8
20260905230051 82 0 0.0 0.0 0.00 0.00 0.00 72 1012.1
20260905224547 82 0 0.0 0.0 0.00 0.00 0.00 72 1012.1
20260905223043 82 0 0.0 1.7 0.00 0.00 0.00 71 1012.0
20260905221545 82 24 1.7 4.3 0.00 0.00 0.00 71 1012.3
20260905220048 82 109 2.6 7.0 0.00 0.00 0.00 71 1012.3
20260905214545 83 111 3.5 7.8 0.00 0.00 0.00 71 1012.3
20260905213054 84 56 3.5 5.2 0.00 0.00 0.00 68 1012.3
20260905211546 84 0 0.0 3.5 0.00 0.00 0.00 67 1012.6
20260905210042 83 0 1.7 5.2 0.00 0.00 0.00 68 1012.5
20260905204550 82 317 0.9 7.0 0.00 0.00 0.00 71 1013.0
20260905203054 81 300 5.2 7.8 0.00 0.00 0.00 71 1013.2
20260905201545 80 37 4.3 12.2 0.00 0.00 0.00 73 1013.0
20260905200052 80 103 7.8 17.4 0.00 0.00 0.00 72 1012.5
20260905194550 86 67 9.6 18.2 0.00 0.00 0.00 62 1012.9
20260905193100 91 49 12.2 27.8 0.00 0.00 0.00 51 1012.8
20260905191549 97 67 3.5 7.0 0.00 0.00 0.00 47 1012.1
20260905190043 99 49 1.7 5.2 0.00 0.00 0.00 45 1012.1
20260905184551 99 59 1.7 8.7 0.00 0.00 0.00 44 1011.9
20260905183046 98 252 2.6 8.7 0.00 0.00 0.00 46 1012.2
20260905181548 97 42 1.7 8.7 0.00 0.00 0.00 47 1012.3
20260905180058 98 333 1.7 5.2 0.00 0.00 0.00 47 1012.8
20260905174549 97 308 0.9 7.0 0.00 0.00 0.00 49 1013.0
20260905173051 96 178 4.3 12.2 0.00 0.00 0.00 50 1013.2
20260905171543 95 122 4.3 7.8 0.00 0.00 0.00 53 1013.1
20260905170057 96 204 3.5 7.0 0.00 0.00 0.00 53 1013.2
20260905164548 95 280 2.6 5.2 0.00 0.00 0.00 54 1013.7
20260905163043 94 336 2.6 7.0 0.00 0.00 0.00 56 1014.1
20260905161551 93 187 1.7 7.0 0.00 0.00 0.00 58 1014.3
20260905160052 92 346 2.6 7.0 0.00 0.00 0.00 60 1014.3
20260905154545 91 281 2.6 7.0 0.00 0.00 0.00 60 1014.4
20260905153041 90 303 1.7 6.1 0.00 0.00 0.00 65 1014.5
20260905151552 89 265 4.3 7.0 0.00 0.00 0.00 67 1014.7
20260905150056 88 304 3.5 7.0 0.00 0.00 0.00 68 1015.0
20260905144547 88 248 2.6 4.3 0.00 0.00 0.00 71 1014.9
20260905143055 86 352 0.9 4.3 0.00 0.00 0.00 73 1014.8
20260905141549 84 19 1.7 6.1 0.00 0.00 0.00 76 1015.0
20260905140058 83 288 3.5 7.0 0.00 0.00 0.00 78 1015.1
20260905134558 82 333 1.7 6.1 0.00 0.00 0.00 82 1015.4
20260905133050 81 260 3.5 6.1 0.00 0.00 0.00 84 1015.3
20260905131551 80 269 2.6 6.1 0.00 0.00 0.00 86 1015.2
20260905130048 78 272 1.7 5.2 0.00 0.00 0.00 89 1015.2
20260905124554 77 0 0.9 5.2 0.00 0.00 0.00 91 1015.1
20260905123051 76 275 0.9 3.5 0.00 0.00 0.00 93 1015.1
20260905121545 75 0 0.9 3.5 0.00 0.00 0.00 95 1015.3
20260905120043 75 249 0.0 1.7 0.00 0.00 0.00 96 1015.0
20260905114549 74 192 1.7 2.6 0.00 0.00 0.00 96 1014.8
20260905113043 74 327 0.0 2.6 0.00 0.00 0.00 96 1014.4
20260905111600 74 315 0.0 1.7 0.00 0.00 0.00 96 1014.4
20260905110049 74 0 0.0 2.6 0.00 0.00 0.00 96 1014.2
20260905104548 74 0 0.0 2.6 0.00 0.00 0.00 97 1014.2
20260905103042 74 295 0.0 2.6 0.00 0.00 0.00 97 1014.2
20260905101552 74 284 0.0 2.6 0.00 0.00 0.00 97 1013.9
20260905100100 74 0 0.0 2.6 0.00 0.00 0.00 97 1014.1
20260905094547 75 232 0.0 1.7 0.00 0.00 0.00 97 1014.1
20260905093043 74 0 0.0 0.0 0.00 0.00 0.00 97 1014.1
20260905091542 75 0 0.0 0.0 0.00 0.00 0.00 97 1013.9
20260905090048 75 0 0.0 0.0 0.00 0.00 0.00 97 1013.9
20260905084550 75 0 0.0 0.0 0.00 0.00 0.00 97 1014.2